Location: Astronomy Club of Akron Observatory
(40.9700°N, 81.5606°W)
Time: 15:50:22
(UTC-04:00)

ATLAS 2AS CENTAUR R/B - Visible Passes

Search period start: 23 June 2018 00:00
Search period end: 03 July 2018 00:00
Orbit: 912 x 1300 km, 63.7° (Epoch: 17 June)

Date Brightness Start Highest point End Pass type
(mag) Time Alt. Az. Time Alt. Az. Time Alt. Az.
23 Jun 5.6 01:11:21 10° WNW 01:16:30 18° NNW 01:21:41 10° NNE visible
23 Jun 5.8 03:07:29 10° NNW 03:11:17 14° N 03:15:02 10° NE visible
23 Jun 5.3 04:58:50 10° NNW 05:05:26 27° NE 05:11:41 10° E visible
23 Jun 3.5 22:30:22 10° SW 22:38:09 66° NW 22:46:16 10° NNE visible
24 Jun 5.4 00:24:49 10° WNW 00:30:49 22° NNW 00:36:52 10° NNE visible
24 Jun 5.9 02:21:44 10° NNW 02:25:20 13° N 02:28:54 10° NNE visible
24 Jun 5.6 04:14:05 10° NNW 04:19:53 21° NNE 04:25:27 10° ENE visible
24 Jun 3.1 21:45:26 10° SSW 21:53:14 88° ESE 22:01:25 10° NE visible
24 Jun 5.0 23:38:33 10° W 23:45:17 29° NW 23:52:08 10° NNE visible
25 Jun 5.9 01:35:27 10° NW 01:39:24 14° N 01:43:19 10° NNE visible
25 Jun 5.8 03:29:14 10° NNW 03:34:11 17° NNE 03:38:59 10° ENE visible
25 Jun 4.4 05:19:57 10° NNW 05:27:30 45° NE 05:34:28 10° ESE visible
25 Jun 4.6 22:52:37 10° WSW 22:59:55 39° NW 23:07:26 10° NNE visible
26 Jun 5.8 00:48:51 10° NW 00:53:31 16° NNW 00:58:10 10° NNE visible
26 Jun 5.9 02:44:12 10° NNW 02:48:22 15° NNE 02:52:25 10° NE visible
26 Jun 4.9 04:35:13 10° NNW 04:42:14 32° NE 04:48:47 10° E visible
26 Jun 4.0 22:07:04 10° SW 22:14:43 54° NW 22:22:41 10° NNE visible
27 Jun 5.6 00:02:14 10° WNW 00:07:45 19° NNW 00:13:17 10° NNE visible
27 Jun 6.0 01:58:47 10° NNW 02:02:27 13° N 02:06:03 10° NNE visible
27 Jun 5.4 03:50:29 10° NNW 03:56:46 24° NNE 04:02:45 10° E visible
27 Jun 3.4 21:21:53 10° SW 21:29:42 76° NW 21:37:53 10° NNE visible
27 Jun 5.4 23:15:48 10° W 23:22:07 25° NNW 23:28:31 10° NNE visible
28 Jun 6.0 01:12:49 10° NNW 01:16:29 13° N 01:20:08 10° NNE visible
28 Jun 5.6 03:05:42 10° NNW 03:11:10 19° NNE 03:16:25 10° ENE visible
28 Jun 3.9 04:56:21 10° NNW 05:04:07 55° NE 05:11:15 10° SE visible
28 Jun 5.0 22:29:40 10° W 22:36:39 32° NW 22:43:48 10° NNE visible
29 Jun 6.0 00:26:21 10° NW 00:30:34 15° NNW 00:34:45 10° NNE visible
29 Jun 5.8 02:20:47 10° NNW 02:25:24 16° NNE 02:29:52 10° NE visible
29 Jun 4.5 04:11:36 10° NNW 04:18:57 39° NE 04:25:46 10° ESE visible
29 Jun 4.5 21:43:53 10° WSW 21:51:21 44° NW 21:59:04 10° NNE visible
29 Jun 5.8 23:39:43 10° WNW 23:44:43 17° NNW 23:49:45 10° NNE visible
30 Jun 5.9 01:35:37 10° NNW 01:39:31 14° N 01:43:21 10° NE visible
30 Jun 5.0 03:26:52 10° NNW 03:33:36 29° NE 03:39:56 10° E visible
30 Jun 3.0 05:17:40 10° NW 05:25:33 83° WSW 05:32:45 10° SSE visible
30 Jun 5.6 22:53:09 10° WNW 22:59:00 21° NNW 23:04:55 10° NNE visible
01 Jul 5.9 00:50:00 10° NNW 00:53:35 13° N 00:57:08 10° NNE visible
01 Jul 5.4 02:42:07 10° NNW 02:48:04 22° NNE 02:53:45 10° ENE visible
01 Jul 3.4 04:32:47 10° NNW 04:40:40 68° NE 04:47:53 10° SE visible
01 Jul 5.3 22:06:50 10° W 22:13:27 27° NW 22:20:10 10° NNE visible
02 Jul 5.9 00:03:47 10° NW 00:07:38 14° N 00:11:27 10° NNE visible
02 Jul 5.6 01:57:17 10° NNW 02:02:23 18° NNE 02:07:19 10° ENE visible
02 Jul 4.0 03:47:59 10° NNW 03:55:37 47° NE 04:02:38 10° ESE visible
02 Jul 5.8 23:17:13 10° NW 23:21:44 16° NNW 23:26:15 10° NNE visible
